Location: Jastrz?bniki
(50.3667°N, 20.3833°E)
Time: 11:08:41
(UTC+00:00)

Cosmos 1634 Rocket - Pass Details

Date: 05 August 2024
Orbit: 960 x 991 km, 82.9° (Epoch: 07 September)

Event Time Altitude Azimuth Distance (km) Brightness Sun altitude
Exits shadow 00:45:44 28° 219° (SW) 1,719 4.7 -17.7°
Maximum altitude 00:48:55 56° 285° (WNW) 1,139 4.2 -17.4°
Drops below altitude 10° 00:55:02 10° 3° (N) 2,718 7.3 -16.9°
Sets 00:57:37 0° 8° (N) 3,673 8.2 -16.7°
